CW7625 Weather Reports


Display with metric or nautical units.
time (UTC)temp
F
wind
direction
speed
MPH
gust
MPH
rain 1hr
in
rain 24hr
in
rain mn
in
humidity
%
barometer
mb
20260502123052 49 216 0.0 0.0 0.00 0.00 0.00 93 1017.9
20260502121052 47 216 0.0 0.0 0.00 0.00 0.00 93 1017.4
20260502115053 46 220 0.0 0.0 0.00 0.00 0.00 92 1017.0
20260502113053 47 220 0.0 0.0 0.00 0.00 0.00 92 1016.8
20260502112052 47 220 0.0 0.0 0.00 0.00 0.00 92 1016.8
20260502111053 47 220 0.0 0.0 0.00 0.00 0.00 92 1016.8
20260502110053 47 220 0.0 0.0 0.00 0.00 0.00 92 1016.7
20260502105052 48 220 0.0 0.0 0.00 0.00 0.00 91 1016.6
20260502104053 48 220 0.0 0.0 0.00 0.00 0.00 92 1016.5
20260502103053 49 220 0.0 0.0 0.00 0.00 0.00 92 1016.4
20260502102053 49 220 0.0 0.0 0.00 0.00 0.00 92 1016.4
20260502101053 49 220 0.0 0.0 0.00 0.00 0.00 92 1016.3
20260502091053 50 220 0.0 0.0 0.00 0.00 0.00 92 1015.9
20260502071053 53 220 0.0 0.0 0.00 0.00 0.00 91 1016.0
20260502070053 54 220 0.0 0.0 0.00 0.00 0.00 91 1016.0
20260502065053 54 220 0.0 0.0 0.00 0.01 0.00 91 1016.0
20260502063053 55 220 0.0 1.0 0.00 0.01 0.00 91 1016.1
20260502061053 55 220 0.0 0.0 0.00 0.01 0.00 91 1016.0
20260502060053 55 220 0.0 1.0 0.00 0.01 0.00 91 1016.0
20260502055053 56 220 0.0 0.0 0.00 0.01 0.00 91 1016.0
20260502054053 56 220 0.0 0.0 0.00 0.01 0.00 91 1015.9
20260502052053 56 220 0.0 0.0 0.00 0.01 0.00 91 1016.0
20260502051053 56 220 0.0 0.0 0.00 0.01 0.00 90 1016.0
20260502050053 57 220 0.0 0.0 0.00 0.01 0.00 90 1016.0
20260502045053 57 220 0.0 0.0 0.00 0.01 0.01 90 1015.9
20260502044053 57 220 0.0 0.0 0.00 0.01 0.01 90 1015.8
20260502043054 57 220 0.0 1.0 0.00 0.01 0.01 90 1015.7
20260502042054 57 220 0.0 0.0 0.00 0.01 0.01 90 1015.6
20260502041053 58 220 0.0 0.0 0.00 0.01 0.01 90 1015.8
20260502035053 58 220 0.0 0.0 0.00 0.02 0.01 89 1015.9
20260502034053 58 220 0.0 0.0 0.00 0.02 0.01 89 1016.0
20260502033054 58 220 0.0 1.0 0.00 0.03 0.01 89 1016.0
20260502032053 58 220 0.0 2.0 0.00 0.06 0.01 89 1015.9
20260502030053 59 220 0.0 0.0 0.00 0.08 0.01 89 1015.8
20260502025053 59 220 0.0 0.0 0.00 0.08 0.01 89 1015.7
20260502024053 59 220 0.0 0.0 0.00 0.08 0.01 89 1015.6
20260502023053 60 220 0.0 0.0 0.00 0.08 0.01 89 1015.4
20260502022054 60 220 0.0 0.0 0.00 0.08 0.01 90 1015.3
20260502020054 60 220 0.0 0.0 0.00 0.08 0.01 89 1014.9
20260502015054 60 220 0.0 0.0 0.00 0.08 0.01 89 1014.7
20260502014054 60 220 0.0 0.0 0.00 0.08 0.01 89 1014.7
20260502013054 61 220 0.0 0.0 0.00 0.08 0.01 88 1014.5
20260502011054 61 220 0.0 0.0 0.00 0.08 0.01 87 1014.0
20260502010054 62 220 0.0 0.0 0.00 0.08 0.01 86 1014.0
20260502004054 62 233 0.0 0.0 0.00 0.08 0.01 85 1013.7
20260502003054 63 233 0.0 0.0 0.00 0.08 0.01 83 1013.9
20260502002054 63 233 0.0 0.0 0.00 0.08 0.01 83 1013.8
20260502001054 64 233 0.0 0.0 0.00 0.08 0.01 83 1013.6
20260502000054 65 113 0.0 0.0 0.00 0.08 0.01 81 1013.6
20260501235054 65 113 0.0 0.0 0.00 0.08 0.01 80 1013.4
20260501233054 66 113 0.0 0.0 0.00 0.08 0.01 77 1013.2
20260501232054 66 115 0.0 1.0 0.00 0.08 0.01 75 1012.9
20260501230054 66 66 0.0 2.0 0.00 0.08 0.01 73 1012.7
20260501225054 66 66 0.0 2.0 0.00 0.08 0.01 74 1012.6
20260501224054 67 66 0.0 2.0 0.00 0.08 0.01 74 1012.0
20260501223054 67 66 1.0 2.0 0.00 0.08 0.01 69 1011.9
20260501222054 67 66 0.0 4.0 0.00 0.08 0.01 66 1011.9
20260501221054 68 92 0.0 5.0 0.00 0.08 0.01 67 1012.1
20260501215054 68 107 3.0 4.0 0.00 0.08 0.01 63 1012.2
20260501214054 68 57 3.0 6.0 0.00 0.08 0.01 60 1012.2
20260501213054 67 83 2.0 6.0 0.00 0.08 0.01 60 1012.6
20260501212054 68 84 3.0 7.0 0.00 0.08 0.01 61 1012.5
20260501211054 68 20 3.0 7.0 0.00 0.08 0.01 62 1012.7
20260501210054 69 53 2.0 11.0 0.00 0.08 0.01 59 1012.8
20260501205054 69 101 4.0 9.0 0.00 0.08 0.01 61 1012.5
20260501204054 68 41 3.0 11.0 0.00 0.08 0.01 61 1012.4
20260501203054 68 87 9.0 10.0 0.00 0.08 0.01 61 1012.4
20260501202054 67 24 4.0 13.0 0.00 0.08 0.01 59 1012.4
20260501201054 68 29 6.0 11.0 0.00 0.08 0.01 60 1012.5
20260501195054 68 92 11.0 12.0 0.00 0.08 0.01 59 1012.9
20260501194054 69 85 9.0 12.0 0.00 0.08 0.01 62 1013.0
20260501193055 68 67 2.0 15.0 0.00 0.08 0.01 62 1013.4
20260501192054 68 81 10.0 13.0 0.00 0.08 0.01 63 1013.7
20260501191054 68 107 7.0 10.0 0.00 0.08 0.01 65 1014.2
20260501190054 68 61 8.0 12.0 0.00 0.08 0.01 64 1014.2
20260501185054 67 38 7.0 15.0 0.00 0.08 0.01 67 1014.4
20260501184055 66 34 6.0 13.0 0.00 0.08 0.01 65 1014.7
20260501183054 66 94 8.0 15.0 0.00 0.08 0.01 64 1015.1
20260501182055 66 46 5.0 12.0 0.00 0.08 0.01 67 1015.0
20260501181054 65 67 5.0 12.0 0.00 0.08 0.01 72 1015.2
20260501180057 65 307 3.0 11.0 0.00 0.08 0.01 73 1015.4
20260501175054 64 39 3.0 9.0 0.00 0.08 0.01 71 1015.5
20260501174054 62 39 5.0 8.0 0.00 0.08 0.01 74 1015.5
20260501173055 62 24 2.0 8.0 0.00 0.08 0.01 74 1015.3
20260501170055 61 118 3.0 8.0 0.00 0.08 0.01 76 1016.0
20260501165055 61 59 5.0 9.0 0.00 0.08 0.01 75 1016.2
20260501164054 61 64 4.0 5.0 0.00 0.08 0.01 79 1016.4
20260501163055 60 77 3.0 7.0 0.00 0.08 0.01 78 1016.6
20260501162055 60 21 2.0 5.0 0.00 0.08 0.01 78 1016.3
20260501161055 60 78 2.0 5.0 0.00 0.08 0.01 78 1016.5
20260501160054 60 32 3.0 5.0 0.00 0.08 0.01 78 1016.3
20260501155054 60 38 3.0 6.0 0.00 0.08 0.01 78 1016.0
20260501154055 60 100 3.0 8.0 0.00 0.08 0.01 79 1015.9
20260501153055 60 63 3.0 8.0 0.00 0.08 0.01 78 1016.0
20260501152055 60 58 5.0 8.0 0.00 0.08 0.01 78 1015.9
20260501151055 59 27 4.0 6.0 0.00 0.08 0.01 82 1015.5
20260501150054 58 38 3.0 4.0 0.00 0.08 0.01 86 1015.9
20260501145055 58 61 3.0 5.0 0.00 0.08 0.01 88 1015.6
20260501144055 58 55 3.0 4.0 0.00 0.08 0.01 89 1015.8
20260501142055 57 17 2.0 3.0 0.00 0.08 0.01 90 1015.9
20260501141055 56 16 1.0 2.0 0.00 0.08 0.01 90 1016.0
20260501140055 56 286 0.0 1.0 0.00 0.08 0.01 90 1015.8